Location: Grambois
(43.7619°N, 5.5873°E)
Time: 17:35:20
(UTC+00:00)

CZ-2C R/B - Pass Details

Date: 07 June 2020
Orbit: 503 x 567 km, 97.7° (Epoch: 08 July)

Event Time Altitude Azimuth Distance (km) Brightness Sun altitude
Rises 02:58:56 0° 13° (NNE) 2,638 7.4 -8.9°
Reaches altitude 10° 03:01:01 10° 15° (NNE) 1,755 6.4 -8.6°
Maximum altitude 03:04:48 79° 102° (ESE) 540 2.8 -8.1°
Drops below altitude 10° 03:08:38 10° 190° (S) 1,775 5.0 -7.6°
Enters shadow 03:09:53 - 191° (S) 2,298 5.5 -7.5°
